Charleroi, Belgium

6:18 PM CEST on August 31, 2016 (GMT +0200)
Brussels South

Weather History for EBCI - March, 2013

Change the Weather History Date:

Wednesday, March 20, 2013

  Actual Average Record
Temperature  
Mean Temperature 38 °F -  
Max Temperature 43 °F 53 °F 67 °F (2014)
Min Temperature 33 °F 38 °F 30 °F (2001)
Degree Days  
Heating Degree Days 27    
Moisture  
Dew Point 35 °F    
Average Humidity 90    
Maximum Humidity 100    
Minimum Humidity 81    
Precipitation  
Precipitation 0.12 in - - ()
Sea Level Pressure  
Sea Level Pressure 29.63 in    
Wind  
Wind Speed 6 mph ()    
Max Wind Speed 12 mph    
Max Gust Speed -    
Visibility 4.3 miles    
Events Rain    
Averages and records for this station are not official NWS values.
T = Trace of Precipitation, MM = Missing Value Source: Averaged Metar Reports

Daily Weather History Graph

Daily Weather History Graph

Search for Another Location

Airport or City:

Trip Planner

Search our weather history database for the weather conditions in past years. The results will help you decide how hot, cold, wet, or windy it might be!

Date:

Astronomy

Mar. 20, 2013 Rise Set
Actual Time 6:44 AM CET 6:55 PM CET
Civil Twilight 6:12 AM CET 7:27 PM CET
Nautical Twilight 5:33 AM CET 8:06 PM CET
Astronomical Twilight 4:54 AM CET 8:46 PM CET
Moon 11:42 AM CET (3/20) 2:47 AM CET (3/20)
Length of Visible Light 13h 15m
Length of Day
12h 10m
First Quarter, 57% of the Moon is Illuminated
Mar 20
First Quarter
Mar 27
Full
Apr 3
Last Quarter
Apr 10
New
Apr 18
First Quarter

Hourly Weather History & Observations

Time (CET) Temp. Windchill Dew Point Humidity Pressure Visibility Wind Dir Wind Speed Gust Speed Precip Events Conditions
12:20 AM 39.2 °F 35.0 °F 35.6 °F 87% 29.50 in 6.2 mi SSE 5.8 mph - N/A Rain Light Rain
12:50 AM 39.2 °F 35.0 °F 35.6 °F 87% 29.50 in 6.2 mi South 5.8 mph - N/A Rain Light Rain
1:00 AM 39 °F - 36 °F 87% 29.54 in 9 mi South 6.7 mph - - Rain Light Rain
1:20 AM 39.2 °F 33.6 °F 35.6 °F 87% 29.50 in 5.0 mi South 8.1 mph - N/A Rain Light Rain
1:50 AM 39.2 °F 35.0 °F 35.6 °F 87% 29.50 in 5.0 mi SSE 5.8 mph - N/A Rain Light Rain
2:20 AM 39.2 °F 35.0 °F 35.6 °F 87% 29.50 in 6.2 mi SE 5.8 mph - N/A Rain Light Rain
2:50 AM 39.2 °F 35.9 °F 35.6 °F 87% 29.50 in 6.2 mi SE 4.6 mph - N/A Rain Light Rain
3:20 AM 37.4 °F 32.8 °F 35.6 °F 93% 29.50 in 6.2 mi SE 5.8 mph - N/A Rain Light Rain
3:50 AM 37.4 °F 32.8 °F 37.4 °F 100% 29.47 in 5.0 mi SE 5.8 mph - N/A Rain Light Rain
4:00 AM 38 °F - 36 °F 92% 29.52 in 5 mi SE 4.5 mph - - Rain Light Rain
4:20 AM 37.4 °F 32.8 °F 35.6 °F 93% 29.47 in 5.0 mi SE 5.8 mph - N/A Rain Light Rain
4:50 AM 37.4 °F 32.8 °F 35.6 °F 93% 29.47 in 5.0 mi SSE 5.8 mph - N/A Rain Light Rain
5:20 AM 37.4 °F 34.9 °F 35.6 °F 93% 29.47 in 5.0 mi SE 3.5 mph - N/A Rain Light Rain
5:50 AM 37.4 °F 34.9 °F 35.6 °F 93% 29.47 in 6.2 mi SE 3.5 mph - N/A Rain Light Rain
6:20 AM 37.4 °F 33.8 °F 35.6 °F 93% 29.47 in 6.2 mi ESE 4.6 mph - N/A Rain Light Rain
6:50 AM 37.4 °F 33.8 °F 35.6 °F 93% 29.47 in 6.2 mi SE 4.6 mph - N/A   Mostly Cloudy
7:00 AM 38 °F - 36 °F 90% 29.51 in 6 mi SE 4.5 mph - - Rain Light Rain
7:20 AM 37.4 °F 34.9 °F 35.6 °F 93% 29.47 in 6.2 mi SSE 3.5 mph - N/A Rain Light Rain
7:50 AM 39.2 °F 37.0 °F 37.4 °F 93% 29.47 in 4.3 mi SSE 3.5 mph - N/A Rain Light Rain
8:20 AM 39.2 °F 35.9 °F 37.4 °F 93% 29.47 in 4.3 mi SW 4.6 mph - N/A Rain Light Rain
8:50 AM 39.2 °F 35.0 °F 37.4 °F 93% 29.50 in 5.0 mi SSW 5.8 mph - N/A Rain Light Rain
9:20 AM 39.2 °F 33.6 °F 37.4 °F 93% 29.50 in 6.2 mi SSW 8.1 mph - N/A Rain Light Rain
9:50 AM 39.2 °F 35.0 °F 37.4 °F 93% 29.50 in 6.2 mi SW 5.8 mph - N/A   Mostly Cloudy
10:00 AM 40 °F - 37 °F 86% 29.54 in 11 mi SW 4.5 mph - - Rain Light Rain
10:20 AM 39.2 °F 35.0 °F 37.4 °F 93% 29.53 in 6.2 mi SW 5.8 mph - N/A   Mostly Cloudy
10:50 AM 41.0 °F 36.4 °F 39.2 °F 93% 29.53 in 6.2 mi SW 6.9 mph - N/A   Mostly Cloudy
11:20 AM 41.0 °F 35.8 °F 37.4 °F 87% 29.53 in 6.2 mi WSW 8.1 mph - N/A   Mostly Cloudy
11:50 AM 42.8 °F 38.6 °F 39.2 °F 87% 29.53 in 6.2 mi West 6.9 mph - N/A   Mostly Cloudy
12:20 PM 42.8 °F 37.5 °F 37.4 °F 81% 29.56 in 6.2 mi West 9.2 mph - N/A   Mostly Cloudy
12:50 PM 41.0 °F 35.2 °F 37.4 °F 87% 29.56 in 5.0 mi West 9.2 mph - N/A Rain Light Rain Showers
1:00 PM 40 °F - 36 °F 82% 29.60 in 5 mi West 8.9 mph - - Rain Light Rain Showers
1:20 PM 41.0 °F 37.1 °F 37.4 °F 87% 29.59 in 6.2 mi West 5.8 mph - N/A   Mostly Cloudy
1:50 PM 41.0 °F 35.2 °F 37.4 °F 87% 29.59 in 5.0 mi West 9.2 mph - N/A Rain Light Rain Showers
2:20 PM 39.2 °F 34.2 °F 37.4 °F 93% 29.62 in 1.9 mi NNW 6.9 mph - N/A Rain Light Rain
2:50 PM 39.2 °F 33.6 °F 37.4 °F 93% 29.62 in 1.9 mi North 8.1 mph - N/A Rain Light Rain
3:20 PM 37.4 °F 30.3 °F 35.6 °F 93% 29.65 in 1.1 mi North 10.4 mph - N/A   Mostly Cloudy
3:50 PM 35.6 °F 27.5 °F 33.8 °F 93% 29.68 in - North 11.5 mph - N/A   Mostly Cloudy
4:00 PM 35 °F - 33 °F 91% 29.71 in 2 mi North 11.2 mph - -   Mist
4:20 PM 35.6 °F 27.5 °F 33.8 °F 93% 29.68 in 1.4 mi North 11.5 mph - N/A   Mostly Cloudy
4:50 PM 35.6 °F 28.6 °F 32.0 °F 87% 29.71 in - NNW 9.2 mph - N/A   Mostly Cloudy
5:20 PM 33.8 °F 26.4 °F 32.0 °F 93% 29.74 in - North 9.2 mph - N/A   Mostly Cloudy
5:50 PM 35.6 °F 29.2 °F 32.0 °F 87% 29.77 in 1.9 mi NNW 8.1 mph - N/A   Mostly Cloudy
6:20 PM 33.8 °F 27.7 °F 32.0 °F 93% 29.80 in 1.7 mi North 6.9 mph - N/A   Mostly Cloudy
6:50 PM 33.8 °F 27.7 °F 32.0 °F 93% 29.80 in 1.6 mi NNW 6.9 mph - N/A   Mostly Cloudy
7:00 PM 35 °F - 32 °F 85% 29.85 in 2 mi NNW 6.7 mph - -   Mist
7:20 PM 35.6 °F 31.7 °F 32.0 °F 87% 29.83 in 1.4 mi NNW 4.6 mph - N/A   Mostly Cloudy
7:50 PM 35.6 °F 29.2 °F 32.0 °F 87% 29.86 in 1.4 mi NW 8.1 mph - N/A   Mostly Cloudy
8:20 PM 35.6 °F 30.7 °F 32.0 °F 87% 29.86 in 1.6 mi NNW 5.8 mph - N/A   Mostly Cloudy
8:50 PM 35.6 °F 32.8 °F 32.0 °F 87% 29.89 in 1.6 mi NW 3.5 mph - N/A   Mostly Cloudy
9:20 PM 35.6 °F 30.7 °F 32.0 °F 87% 29.89 in 1.6 mi WNW 5.8 mph - N/A   Mostly Cloudy
9:50 PM 35.6 °F 31.7 °F 32.0 °F 87% 29.92 in 1.6 mi West 4.6 mph - N/A   Mostly Cloudy
10:00 PM 35 °F - 33 °F 87% 29.95 in 2 mi West 4.5 mph - -   Mist
10:20 PM 35.6 °F 31.7 °F 33.8 °F 93% 29.92 in 1.6 mi West 4.6 mph - N/A   Mostly Cloudy
10:50 PM 35.6 °F 30.7 °F 32.0 °F 87% 29.92 in 1.2 mi WNW 5.8 mph - N/A   Mostly Cloudy
11:20 PM 33.8 °F 27.0 °F 32.0 °F 93% 29.95 in 1.2 mi WNW 8.1 mph - N/A   Mostly Cloudy
11:50 PM 33.8 °F 29.6 °F 32.0 °F 93% 29.95 in 1.4 mi NW 4.6 mph - N/A   Mostly Cloudy